FW7213 Weather Reports


Display with metric or nautical units.
time (UTC)temp
F
wind
direction
speed
MPH
gust
MPH
rain 1hr
in
rain 24hr
in
rain mn
in
humidity
%
barometer
mb
20260904184100 85 99 2.0 6.0 0.00 0.00 0.00 84 1015.2
20260904183558 86 138 1.0 5.0 0.00 0.00 0.00 82 1015.3
20260904183106 88 82 1.0 5.0 0.00 0.00 0.00 74 1015.4
20260904182557 89 87 1.0 5.0 0.00 0.00 0.00 72 1015.3
20260904182058 90 136 2.0 5.0 0.00 0.00 0.00 67 1015.4
20260904181600 91 147 2.0 5.0 0.00 0.00 0.00 70 1015.6
20260904181058 90 129 0.0 6.0 0.00 0.00 0.00 72 1015.8
20260904180558 89 349 2.0 6.0 0.00 0.00 0.00 74 1015.8
20260904180106 88 0 1.0 6.0 0.00 0.00 0.00 74 1015.9
20260904175557 89 101 2.0 6.0 0.00 0.00 0.00 74 1015.9
20260904175057 89 146 3.0 6.0 0.00 0.00 0.00 69 1015.9
20260904174604 89 91 1.0 5.0 0.00 0.00 0.00 72 1016.0
20260904174057 90 76 2.0 5.0 0.00 0.00 0.00 70 1015.9
20260904173558 90 0 1.0 6.0 0.00 0.00 0.00 70 1016.0
20260904173112 89 41 2.0 6.0 0.00 0.00 0.00 74 1016.1
20260904172558 89 355 0.0 3.0 0.00 0.00 0.00 76 1016.2
20260904172058 87 20 1.0 3.0 0.00 0.00 0.00 74 1016.3
20260904171603 87 146 1.0 3.0 0.00 0.00 0.00 75 1016.4
20260904171059 86 143 1.0 4.0 0.00 0.00 0.00 75 1016.6
20260904170601 86 110 1.0 6.0 0.00 0.00 0.00 76 1016.7
20260904170106 86 92 1.0 6.0 0.00 0.00 0.00 76 1016.8
20260904165557 86 108 1.0 8.0 0.00 0.00 0.00 79 1016.9
20260904165059 87 87 0.0 8.0 0.00 0.00 0.00 79 1017.0
20260904164602 87 0 0.0 3.0 0.00 0.00 0.00 75 1017.0
20260904164101 87 108 1.0 3.0 0.00 0.00 0.00 76 1017.1
20260904163558 86 54 1.0 3.0 0.00 0.00 0.00 78 1017.2
20260904163108 86 0 0.0 2.0 0.00 0.00 0.00 79 1017.2
20260904162558 86 0 0.0 3.0 0.00 0.00 0.00 78 1017.4
20260904162058 85 84 0.0 3.0 0.00 0.00 0.00 78 1017.5
20260904161606 85 81 1.0 3.0 0.00 0.00 0.00 82 1017.3
20260904161057 86 141 0.0 3.0 0.00 0.00 0.00 79 1017.4
20260904160558 85 0 0.0 3.0 0.00 0.00 0.00 80 1017.3
20260904160103 85 0 0.0 3.0 0.00 0.00 0.00 84 1017.5
20260904155559 85 77 0.0 3.0 0.00 0.00 0.00 84 1017.4
20260904155058 85 0 0.0 3.0 0.00 0.00 0.00 84 1017.4
20260904154617 84 0 0.0 3.0 0.00 0.00 0.00 82 1017.3
20260904154058 85 93 0.0 3.0 0.00 0.00 0.00 81 1017.4
20260904153558 85 155 1.0 2.0 0.00 0.00 0.00 80 1017.3
20260904153108 85 143 0.0 2.0 0.00 0.00 0.00 83 1017.3
20260904152557 85 127 0.0 4.0 0.00 0.00 0.00 80 1017.2
20260904152059 85 120 0.0 4.0 0.00 0.00 0.00 83 1017.2
20260904151611 84 149 1.0 4.0 0.00 0.00 0.00 81 1017.2
20260904151057 84 154 2.0 4.0 0.00 0.00 0.00 83 1017.1
20260904150558 84 150 0.0 4.0 0.00 0.00 0.00 83 1017.0
20260904150100 84 0 0.0 4.0 0.00 0.00 0.00 81 1016.9
20260904145557 84 172 1.0 3.0 0.00 0.00 0.00 81 1016.9
20260904145058 84 0 1.0 3.0 0.00 0.00 0.00 85 1016.9
20260904144600 83 0 0.0 3.0 0.00 0.00 0.00 83 1016.8
20260904144100 83 134 0.0 2.0 0.00 0.00 0.00 86 1016.8
20260904143558 83 163 0.0 3.0 0.00 0.00 0.00 87 1016.8
20260904143107 83 0 0.0 3.0 0.00 0.00 0.00 84 1016.7
20260904142558 83 165 0.0 3.0 0.00 0.00 0.00 84 1016.7
20260904142054 83 144 0.0 5.0 0.00 0.00 0.00 87 1016.7
20260904141623 82 0 0.0 5.0 0.00 0.00 0.00 86 1016.7
20260904141056 82 143 1.0 4.0 0.00 0.00 0.00 85 1016.7
20260904140557 82 136 0.0 4.0 0.00 0.00 0.00 87 1016.7
20260904140110 82 0 0.0 3.0 0.00 0.00 0.00 87 1016.7
20260904135556 81 0 0.0 3.0 0.00 0.00 0.00 89 1016.7
20260904135057 81 98 1.0 3.0 0.00 0.00 0.00 88 1016.6
20260904134619 81 147 0.0 2.0 0.00 0.00 0.00 92 1016.6
20260904134059 80 152 0.0 3.0 0.00 0.00 0.00 90 1016.6
20260904133555 80 141 0.0 4.0 0.00 0.00 0.00 90 1016.5
20260904133116 79 86 1.0 4.0 0.00 0.00 0.00 91 1016.6
20260904132555 79 172 0.0 2.0 0.00 0.00 0.00 92 1016.6
20260904132056 79 0 0.0 1.0 0.00 0.00 0.00 94 1016.6
20260904131615 78 94 0.0 1.0 0.00 0.00 0.00 94 1016.6
20260904131055 77 0 0.0 0.0 0.00 0.00 0.00 95 1016.6
20260904130555 77 0 0.0 1.0 0.00 0.00 0.00 95 1016.5
20260904125559 76 127 0.0 1.0 0.00 0.00 0.00 96 1016.6
20260904125059 76 0 0.0 1.0 0.00 0.00 0.00 96 1016.6
20260904124607 76 0 0.0 1.0 0.00 0.00 0.00 97 1016.6
20260904124058 76 0 0.0 0.0 0.00 0.00 0.00 97 1016.5
20260904123600 75 169 0.0 0.0 0.00 0.00 0.00 97 1016.5
20260904123126 75 0 0.0 0.0 0.00 0.00 0.00 97 1016.4
20260904122556 75 0 0.0 0.0 0.00 0.00 0.00 97 1016.4
20260904122056 75 169 0.0 0.0 0.00 0.00 0.00 97 1016.4
20260904121600 74 0 0.0 0.0 0.00 0.00 0.00 97 1016.3
20260904121056 74 0 0.0 0.0 0.00 0.00 0.00 97 1016.2
20260904120555 74 0 0.0 0.0 0.00 0.00 0.00 97 1016.2
20260904120109 74 0 0.0 0.0 0.00 0.00 0.00 97 1016.1
20260904115555 74 0 0.0 0.0 0.00 0.00 0.00 97 1016.2
20260904115100 74 0 0.0 1.0 0.00 0.00 0.00 97 1016.1
20260904114605 73 0 0.0 1.0 0.00 0.00 0.00 97 1016.1
20260904114055 74 0 0.0 1.0 0.00 0.00 0.00 97 1015.9
20260904113556 74 0 0.0 0.0 0.00 0.00 0.00 97 1015.8
20260904113103 74 0 0.0 1.0 0.00 0.00 0.00 97 1015.8
20260904112556 74 0 0.0 1.0 0.00 0.00 0.00 97 1015.7
20260904112055 74 0 0.0 0.0 0.00 0.00 0.00 97 1015.7
20260904111601 74 0 0.0 0.0 0.00 0.00 0.00 97 1015.7
20260904111055 74 0 0.0 0.0 0.00 0.00 0.00 97 1015.5
20260904110555 74 0 0.0 0.0 0.00 0.00 0.00 97 1015.5
20260904110110 74 0 0.0 0.0 0.00 0.00 0.00 97 1015.5
20260904105558 74 0 0.0 0.0 0.00 0.00 0.00 97 1015.5
20260904105056 74 0 0.0 0.0 0.00 0.00 0.00 97 1015.5
20260904104602 74 0 0.0 0.0 0.00 0.00 0.00 97 1015.4
20260904104055 74 0 0.0 0.0 0.00 0.00 0.00 97 1015.4
20260904103554 74 0 0.0 0.0 0.00 0.00 0.00 97 1015.4
20260904103106 74 0 0.0 0.0 0.00 0.00 0.00 97 1015.3
20260904102556 74 0 0.0 0.0 0.00 0.00 0.00 97 1015.3
20260904102055 75 0 0.0 0.0 0.00 0.00 0.00 97 1015.4
20260904101603 75 0 0.0 0.0 0.00 0.00 0.00 97 1015.4
20260904101055 75 0 0.0 0.0 0.00 0.00 0.00 97 1015.3
20260904100558 75 0 0.0 0.0 0.00 0.00 0.00 97 1015.3
20260904100110 75 0 0.0 0.0 0.00 0.00 0.00 97 1015.2
20260904095558 75 0 0.0 0.0 0.00 0.00 0.00 97 1015.2
20260904095058 75 0 0.0 0.0 0.00 0.00 0.00 97 1015.2
20260904094603 75 0 0.0 0.0 0.00 0.00 0.00 96 1015.2
20260904094057 75 0 0.0 0.0 0.00 0.00 0.00 96 1015.3
20260904093600 75 0 0.0 0.0 0.00 0.00 0.00 96 1015.3
20260904093103 75 0 0.0 0.0 0.00 0.00 0.00 96 1015.3
20260904092554 75 0 0.0 0.0 0.00 0.00 0.00 96 1015.3
20260904092054 75 0 0.0 0.0 0.00 0.00 0.00 96 1015.2
20260904091601 75 0 0.0 0.0 0.00 0.00 0.00 96 1015.2
20260904091059 75 0 0.0 0.0 0.00 0.00 0.00 96 1015.4
20260904090555 75 0 0.0 0.0 0.00 0.00 0.00 96 1015.3
20260904090103 75 0 0.0 0.0 0.00 0.00 0.00 96 1015.2
20260904085555 75 0 0.0 0.0 0.00 0.00 0.00 95 1015.2
20260904085057 75 0 0.0 0.0 0.00 0.00 0.00 95 1015.2
20260904084606 76 0 0.0 0.0 0.00 0.00 0.00 95 1015.2
20260904084054 76 0 0.0 0.0 0.00 0.00 0.00 95 1015.2
20260904083554 76 0 0.0 0.0 0.00 0.00 0.00 95 1015.2
20260904083102 76 0 0.0 0.0 0.00 0.00 0.00 95 1015.2
20260904082558 76 0 0.0 0.0 0.00 0.00 0.00 94 1015.2
20260904082056 76 0 0.0 1.0 0.00 0.00 0.00 94 1015.3
20260904081557 76 0 0.0 1.0 0.00 0.00 0.00 94 1015.2
20260904081055 76 0 0.0 0.0 0.00 0.00 0.00 94 1015.1
20260904080555 76 0 0.0 1.0 0.00 0.00 0.00 94 1015.1
20260904080117 76 0 0.0 1.0 0.00 0.00 0.00 94 1015.1
20260904075555 76 0 0.0 1.0 0.00 0.00 0.00 94 1015.0
20260904075058 77 0 0.0 1.0 0.00 0.00 0.00 94 1015.1
20260904074604 77 0 0.0 1.0 0.00 0.00 0.00 94 1015.0
20260904074056 76 0 0.0 1.0 0.00 0.00 0.00 93 1015.1
20260904073555 76 217 0.0 0.0 0.00 0.00 0.00 93 1015.2
20260904073104 76 0 0.0 0.0 0.00 0.00 0.00 93 1015.3
20260904072555 77 0 0.0 1.0 0.00 0.00 0.00 92 1015.4
20260904072056 77 0 0.0 1.0 0.00 0.00 0.00 93 1015.4
20260904071601 77 0 0.0 0.0 0.00 0.00 0.00 93 1015.4
20260904071057 77 0 0.0 0.0 0.00 0.00 0.00 92 1015.4
20260904070555 77 0 0.0 1.0 0.00 0.00 0.00 92 1015.4
20260904070106 77 0 0.0 1.0 0.00 0.00 0.00 92 1015.6
20260904065554 77 0 0.0 0.0 0.00 0.00 0.00 91 1015.6
20260904065055 77 0 0.0 1.0 0.00 0.00 0.00 91 1015.6
20260904064621 77 0 0.0 1.0 0.00 0.00 0.00 90 1015.6
20260904064055 77 148 0.0 1.0 0.00 0.00 0.00 90 1015.6
20260904063555 76 148 0.0 1.0 0.00 0.00 0.00 89 1015.7
20260904063059 76 142 1.0 1.0 0.00 0.00 0.00 89 1015.8
20260904062559 76 148 1.0 1.0 0.00 0.00 0.00 89 1015.8
20260904062056 76 148 0.0 1.0 0.00 0.00 0.00 89 1015.9
20260904061600 76 0 0.0 0.0 0.00 0.00 0.00 90 1015.8
20260904061058 76 153 0.0 0.0 0.00 0.00 0.00 90 1015.7
20260904060558 76 156 0.0 0.0 0.00 0.00 0.00 90 1015.7
20260904060110 76 0 0.0 0.0 0.00 0.00 0.00 90 1015.7
20260904055554 77 156 0.0 0.0 0.00 0.00 0.00 89 1015.7
20260904055101 77 0 0.0 0.0 0.00 0.00 0.00 88 1015.8
20260904054604 77 0 0.0 0.0 0.00 0.00 0.00 88 1015.9
20260904054101 77 0 0.0 0.0 0.00 0.00 0.00 88 1015.9
20260904053557 77 0 0.0 0.0 0.00 0.00 0.00 88 1015.8
20260904053105 77 0 0.0 0.0 0.00 0.00 0.00 88 1015.8
20260904052558 77 0 0.0 1.0 0.00 0.00 0.00 88 1016.0
20260904052058 77 0 0.0 1.0 0.00 0.00 0.00 88 1015.9
20260904051600 78 0 0.0 1.0 0.00 0.00 0.00 87 1015.8
20260904051055 78 0 0.0 0.0 0.00 0.00 0.00 87 1015.9
20260904050558 78 0 0.0 0.0 0.00 0.00 0.00 86 1015.9
20260904050148 78 0 0.0 0.0 0.00 0.00 0.00 86 1015.8
20260904045555 79 0 0.0 0.0 0.00 0.00 0.00 86 1015.8
20260904045057 79 0 0.0 0.0 0.00 0.00 0.00 86 1015.7
20260904044601 79 0 0.0 0.0 0.00 0.00 0.00 84 1015.8
20260904044058 79 0 0.0 0.0 0.00 0.00 0.00 83 1015.9
20260904043558 79 0 0.0 0.0 0.00 0.00 0.00 83 1015.8
20260904043102 80 0 0.0 0.0 0.00 0.00 0.00 82 1015.9
20260904042556 80 0 0.0 0.0 0.00 0.00 0.00 82 1015.9
20260904042058 79 0 0.0 0.0 0.00 0.00 0.00 83 1016.0
20260904041612 79 0 0.0 0.0 0.00 0.00 0.00 83 1016.0
20260904041055 78 0 0.0 0.0 0.00 0.00 0.00 83 1016.0
20260904040555 78 0 0.0 0.0 0.00 0.00 0.00 84 1016.1
20260904040105 78 0 0.0 0.0 0.00 0.00 0.00 83 1016.1
20260904035558 78 0 0.0 0.0 0.00 0.00 0.00 84 1016.0
20260904035055 78 0 0.0 0.0 0.00 0.00 0.00 84 1016.1
20260904034611 78 0 0.0 0.0 0.00 0.00 0.00 85 1016.0
20260904034058 78 0 0.0 0.0 0.00 0.00 0.00 84 1016.0
20260904033601 78 0 0.0 0.0 0.00 0.00 0.00 84 1016.1
20260904033108 78 0 0.0 0.0 0.00 0.00 0.00 85 1016.1
20260904032555 78 0 0.0 0.0 0.00 0.00 0.00 85 1016.1
20260904032056 78 0 0.0 0.0 0.00 0.00 0.00 84 1016.1
20260904031600 78 0 0.0 0.0 0.00 0.00 0.00 83 1016.0
20260904031058 78 0 0.0 0.0 0.00 0.00 0.00 84 1016.1
20260904030555 78 0 0.0 0.0 0.00 0.00 0.00 84 1016.1
20260904030103 78 0 0.0 0.0 0.00 0.00 0.00 84 1016.0
20260904025559 79 0 0.0 0.0 0.00 0.00 0.00 84 1016.0
20260904025059 79 0 0.0 0.0 0.00 0.00 0.00 84 1016.1
20260904024606 79 0 0.0 0.0 0.00 0.00 0.00 84 1016.1
20260904024058 79 0 0.0 0.0 0.00 0.00 0.00 81 1016.0
20260904023558 79 0 0.0 0.0 0.00 0.00 0.00 82 1016.0
20260904023104 79 0 0.0 0.0 0.00 0.00 0.00 83 1016.0
20260904022555 79 0 0.0 0.0 0.00 0.00 0.00 83 1016.0
20260904022058 79 0 0.0 0.0 0.00 0.00 0.00 83 1016.0
20260904021559 79 0 0.0 0.0 0.00 0.00 0.00 83 1015.9
20260904021057 80 0 0.0 0.0 0.00 0.00 0.00 82 1015.8
20260904020558 80 0 0.0 0.0 0.00 0.00 0.00 82 1015.7
20260904020101 80 0 0.0 0.0 0.00 0.00 0.00 81 1015.6
20260904015557 80 0 0.0 0.0 0.00 0.00 0.00 81 1015.6
20260904015058 80 0 0.0 0.0 0.00 0.00 0.00 81 1015.4
20260904014634 80 0 0.0 0.0 0.00 0.00 0.00 81 1015.3
20260904014058 81 0 0.0 0.0 0.00 0.00 0.00 81 1015.4
20260904013559 81 0 0.0 1.0 0.00 0.00 0.00 80 1015.4
20260904013101 81 0 0.0 1.0 0.00 0.00 0.00 83 1015.4
20260904012558 81 0 0.0 1.0 0.00 0.00 0.00 80 1015.3
20260904012058 82 0 0.0 0.0 0.00 0.00 0.00 80 1015.3
20260904011609 82 0 0.0 0.0 0.00 0.00 0.00 79 1015.3
20260904011058 82 0 0.0 0.0 0.00 0.00 0.00 79 1015.3
20260904010558 82 0 0.0 0.0 0.00 0.00 0.00 77 1015.2
20260904010107 83 0 0.0 0.0 0.00 0.00 0.00 76 1015.1
20260904005600 83 0 0.0 0.0 0.00 0.00 0.00 76 1015.0
20260904005057 83 0 0.0 0.0 0.00 0.00 0.00 75 1015.0
20260904004616 83 0 0.0 0.0 0.00 0.00 0.00 72 1014.9
20260904004054 84 0 0.0 0.0 0.00 0.00 0.00 71 1014.9
20260904003558 84 0 0.0 0.0 0.00 0.00 0.00 71 1015.0
20260904003111 85 0 0.0 0.0 0.00 0.00 0.00 70 1014.8
20260904002558 85 0 0.0 0.0 0.00 0.00 0.00 69 1014.8
20260904002059 86 0 0.0 0.0 0.00 0.00 0.00 69 1014.6
20260904001604 86 0 0.0 0.0 0.00 0.00 0.00 68 1014.6
20260904001058 87 0 0.0 0.0 0.00 0.00 0.00 63 1014.7
20260904000558 88 0 0.0 0.0 0.00 0.00 0.00 62 1014.7
20260904000109 89 0 0.0 0.0 0.00 0.00 0.00 61 1014.6
20260903235558 89 0 0.0 1.0 0.00 0.00 0.00 60 1014.7
20260903235057 90 0 0.0 1.0 0.00 0.00 0.00 59 1014.6
20260903234604 90 0 0.0 1.0 0.00 0.00 0.00 59 1014.5
20260903234059 91 0 0.0 1.0 0.00 0.00 0.00 58 1014.4
20260903233559 91 0 0.0 3.0 0.00 0.00 0.00 57 1014.5
20260903233103 92 122 0.0 3.0 0.00 0.00 0.00 56 1014.5
20260903232558 92 0 0.0 3.0 0.00 0.00 0.00 58 1014.4
20260903232055 92 0 0.0 3.0 0.00 0.00 0.00 58 1014.5
20260903231610 92 0 1.0 3.0 0.00 0.00 0.00 54 1014.5
20260903231058 93 127 0.0 3.0 0.00 0.00 0.00 55 1014.4
20260903230600 93 108 0.0 3.0 0.00 0.00 0.00 54 1014.2
20260903230114 94 62 0.0 3.0 0.00 0.00 0.00 57 1014.2
20260903225556 94 93 0.0 2.0 0.00 0.00 0.00 52 1014.2
20260903225055 94 0 0.0 1.0 0.00 0.00 0.00 56 1014.3
20260903224601 95 0 0.0 1.0 0.00 0.00 0.00 56 1014.3
20260903224058 94 0 0.0 4.0 0.00 0.00 0.00 53 1014.2
20260903223601 94 0 0.0 4.0 0.00 0.00 0.00 52 1014.2
20260903223117 94 0 0.0 3.0 0.00 0.00 0.00 53 1014.3
20260903222558 94 0 1.0 4.0 0.00 0.00 0.00 56 1014.3
20260903222058 94 111 1.0 4.0 0.00 0.00 0.00 51 1014.3
20260903221602 95 138 0.0 5.0 0.00 0.00 0.00 53 1014.3
20260903221100 95 154 2.0 5.0 0.00 0.00 0.00 50 1014.3
20260903220558 95 0 0.0 5.0 0.00 0.00 0.00 52 1014.4
20260903220108 94 229 2.0 5.0 0.00 0.00 0.00 55 1014.2
20260903215600 94 151 0.0 5.0 0.00 0.00 0.00 52 1014.3
20260903215058 94 153 1.0 5.0 0.00 0.00 0.00 57 1014.4
20260903214600 94 155 1.0 8.0 0.00 0.00 0.00 58 1014.4
20260903214058 93 115 3.0 8.0 0.00 0.00 0.00 55 1014.5
20260903213557 93 106 3.0 8.0 0.00 0.00 0.00 55 1014.4
20260903213103 93 137 2.0 6.0 0.00 0.00 0.00 58 1014.5
20260903212558 93 75 2.0 6.0 0.00 0.00 0.00 57 1014.5
20260903212058 92 121 1.0 5.0 0.00 0.00 0.00 59 1014.6
20260903211616 92 94 1.0 7.0 0.00 0.00 0.00 58 1014.7
20260903211057 93 105 2.0 9.0 0.00 0.00 0.00 61 1014.7
20260903210559 93 129 4.0 9.0 0.00 0.00 0.00 57 1014.6
20260903205557 92 128 2.0 6.0 0.00 0.00 0.00 62 1014.8
20260903205057 92 0 0.0 2.0 0.00 0.00 0.00 59 1014.9
20260903204604 92 148 0.0 3.0 0.00 0.00 0.00 62 1014.9
20260903204058 92 0 0.0 3.0 0.00 0.00 0.00 59 1015.0
20260903203558 92 0 1.0 4.0 0.00 0.00 0.00 59 1015.1
20260903203107 91 0 1.0 6.0 0.00 0.00 0.00 59 1015.2
20260903202558 92 106 1.0 6.0 0.00 0.00 0.00 59 1015.2
20260903202058 92 124 1.0 5.0 0.00 0.00 0.00 61 1015.3
20260903201606 93 60 2.0 6.0 0.00 0.00 0.00 60 1015.2
20260903201057 93 108 1.0 6.0 0.00 0.00 0.00 59 1015.2
20260903200557 93 105 1.0 5.0 0.00 0.00 0.00 57 1015.3
20260903200110 92 0 0.0 5.0 0.00 0.00 0.00 58 1015.3
20260903195558 92 74 1.0 4.0 0.00 0.00 0.00 58 1015.3
20260903195059 93 0 1.0 5.0 0.00 0.00 0.00 55 1015.3
20260903194601 94 102 0.0 7.0 0.00 0.00 0.00 57 1015.3
20260903194058 94 101 1.0 7.0 0.00 0.00 0.00 55 1015.4
20260903193558 94 115 1.0 6.0 0.00 0.00 0.00 58 1015.5
20260903193107 93 104 0.0 7.0 0.00 0.00 0.00 60 1015.5
20260903192558 92 0 1.0 7.0 0.00 0.00 0.00 61 1015.6
20260903192058 94 98 2.0 7.0 0.00 0.00 0.00 55 1015.7
20260903191607 94 349 0.0 5.0 0.00 0.00 0.00 59 1015.6
20260903191058 93 0 1.0 6.0 0.00 0.00 0.00 61 1015.7
20260903190558 93 89 3.0 6.0 0.00 0.00 0.00 62 1015.9
20260903185558 92 0 1.0 6.0 0.00 0.00 0.00 62 1016.0
20260903185058 93 144 2.0 6.0 0.00 0.00 0.00 61 1016.1
20260903184603 93 0 1.0 4.0 0.00 0.00 0.00 60 1016.2